Weather in Picton

New Zealand     41°17′15″S   174°00′11″E
temp.,
°C
wind,
m/s
gust,
m/s
humid.,
%
clouds,
%
prec.,
mm/h
press.,
hPa
HPBL,
m
6 august, fri
fri600:00+8n1496100 0.8 993150
03:00+9n2799100 8.9 991444
06:00+8sw1198100 11.9 99190
09:00+8se1196100 0.8 99385
12:00+9s1397100 1.9 993269
15:00+9sse1298100 2.6 992207
18:00+7sse129854 2.6 99461
21:00+7sse019867 0.0 99617
7 august, sat
sat700:00+5nw119713 0.0 99722
03:00+6nw229955 0.0 99675
06:00+6wnw239699 0.1 99684
09:00+7w129089 0.0 99879
12:00+13w4855100 0.0 9991121
15:00+11e136674 0.0 1001821
18:00+8wnw4116794 0.1 1003799
21:00+7wnw41165100 0.0 1004688
8 august, sun
sun800:00+5nw36715 0.0 1005183
03:00+4nw2378100 0.0 100587
06:00+4nw228375 0.0 100540
09:00+7nw3978100 0.0 1002733
12:00+9nnw51697100 6.1 9961689
15:00+10nw61493100 1.8 9921390
18:00+6ese129599 3.8 993197
21:00+3e1795100 4.9 997701
9 august, mon
mon900:00+3s4179076 5.3 9981435
03:00+3sse102185100 0.1 10001733
06:00+4sse92069100 0.1 10031966
09:00+4s7186295 0.0 10072021
12:00+6s716574 0.1 10092240
15:00+6sse410573 0.2 10101703
18:00+2ssw117617 0.3 101369
21:000wsw21822 0.0 101526
10 august, tue
tue1000:00−1w11772 0.0 101522
03:000w11682 0.0 101523
06:000w11615 0.0 101520
09:00+6wsw11491 0.0 101768
12:00+13nw01360 0.0 1016622
15:00+13se014174 0.0 1015912
18:00+6wsw01785 0.0 101713
21:00+4sw1185100 0.0 102016